| time (UTC) | temp F | wind direction | speed MPH | gust MPH | rain 1hr in | rain 24hr in | rain mn in | humidity % | barometer mb |
| 20260903143001 | 65 | 245 | 0.0 | 0.0 | 0.00 | 0.00 | 0.00 | 53 | 1005.1 |
| 20260903141559 | 63 | 245 | 0.0 | 0.0 | 0.00 | 0.00 | 0.00 | 55 | 1005.3 |
| 20260903140100 | 60 | 232 | 0.0 | 0.0 | 0.00 | 0.00 | 0.00 | 57 | 1005.2 |
| 20260903134620 | 57 | 271 | 0.0 | 0.0 | 0.00 | 0.00 | 0.00 | 64 | 1005.2 |
| 20260903133057 | 56 | 5 | 0.0 | 0.0 | 0.00 | 0.00 | 0.00 | 65 | 1005.0 |
| 20260903131554 | 55 | 239 | 0.0 | 0.0 | 0.00 | 0.00 | 0.00 | 67 | 1004.9 |
| 20260903130105 | 54 | 245 | 0.0 | 0.0 | 0.00 | 0.00 | 0.00 | 68 | 1004.7 |
| 20260903124556 | 54 | 245 | 0.0 | 0.0 | 0.00 | 0.00 | 0.00 | 66 | 1004.5 |
| 20260903123051 | 55 | 231 | 0.0 | 0.0 | 0.00 | 0.00 | 0.00 | 67 | 1004.3 |
| 20260903120115 | 55 | 232 | 0.0 | 0.0 | 0.00 | 0.00 | 0.00 | 63 | 1004.1 |
| 20260903114600 | 54 | 232 | 0.0 | 0.0 | 0.00 | 0.00 | 0.00 | 66 | 1003.9 |
| 20260903113044 | 55 | 231 | 0.0 | 0.0 | 0.00 | 0.00 | 0.00 | 67 | 1003.8 |
| 20260903111542 | 55 | 232 | 0.0 | 0.0 | 0.00 | 0.00 | 0.00 | 66 | 1003.8 |
| 20260903110041 | 55 | 232 | 0.0 | 0.0 | 0.00 | 0.00 | 0.00 | 67 | 1003.9 |
| 20260903104540 | 56 | 232 | 0.0 | 0.0 | 0.00 | 0.00 | 0.00 | 66 | 1003.7 |
| 20260903103038 | 56 | 251 | 0.0 | 0.0 | 0.00 | 0.00 | 0.00 | 67 | 1003.7 |
| 20260903101538 | 56 | 251 | 0.0 | 0.0 | 0.00 | 0.00 | 0.00 | 66 | 1003.6 |
| 20260903100041 | 57 | 248 | 0.0 | 0.0 | 0.00 | 0.00 | 0.00 | 66 | 1003.7 |
| 20260903094534 | 57 | 248 | 0.0 | 0.0 | 0.00 | 0.00 | 0.00 | 66 | 1003.6 |
| 20260903093031 | 58 | 248 | 0.0 | 0.0 | 0.00 | 0.00 | 0.00 | 66 | 1003.7 |
| 20260903091528 | 58 | 248 | 0.0 | 0.0 | 0.00 | 0.00 | 0.00 | 67 | 1003.6 |
| 20260903090026 | 59 | 248 | 0.0 | 0.0 | 0.00 | 0.00 | 0.00 | 65 | 1003.5 |
| 20260903084523 | 59 | 248 | 0.0 | 0.0 | 0.00 | 0.00 | 0.00 | 66 | 1003.4 |
| 20260903083020 | 60 | 248 | 0.0 | 0.0 | 0.00 | 0.00 | 0.00 | 64 | 1003.5 |
| 20260903081520 | 60 | 248 | 0.0 | 0.0 | 0.00 | 0.00 | 0.00 | 65 | 1003.4 |
| 20260903080017 | 60 | 248 | 0.0 | 0.0 | 0.00 | 0.00 | 0.00 | 63 | 1003.3 |
| 20260903074515 | 61 | 221 | 0.0 | 0.0 | 0.00 | 0.00 | 0.00 | 66 | 1003.4 |
| 20260903073011 | 62 | 221 | 0.0 | 0.0 | 0.00 | 0.00 | 0.00 | 67 | 1003.6 |
| 20260903071508 | 63 | 221 | 0.0 | 0.0 | 0.00 | 0.00 | 0.00 | 66 | 1003.6 |
| 20260903070013 | 63 | 221 | 0.0 | 0.0 | 0.00 | 0.00 | 0.00 | 65 | 1003.8 |
| 20260903064503 | 64 | 221 | 0.0 | 0.0 | 0.00 | 0.00 | 0.00 | 64 | 1004.0 |
| 20260903063000 | 64 | 218 | 0.0 | 0.0 | 0.00 | 0.00 | 0.00 | 64 | 1004.0 |
| 20260903061608 | 64 | 206 | 0.0 | 0.0 | 0.00 | 0.00 | 0.00 | 64 | 1004.0 |
| 20260903060058 | 65 | 206 | 0.0 | 0.0 | 0.00 | 0.00 | 0.00 | 64 | 1003.9 |
| 20260903054602 | 65 | 206 | 0.0 | 0.0 | 0.00 | 0.00 | 0.00 | 63 | 1004.0 |
| 20260903053056 | 65 | 206 | 0.0 | 0.0 | 0.00 | 0.00 | 0.00 | 63 | 1003.8 |
| 20260903051556 | 65 | 192 | 0.0 | 0.0 | 0.00 | 0.00 | 0.00 | 62 | 1003.7 |
| 20260903050154 | 65 | 192 | 0.0 | 0.0 | 0.00 | 0.00 | 0.00 | 63 | 1003.6 |
| 20260903044558 | 66 | 61 | 0.0 | 0.0 | 0.00 | 0.00 | 0.00 | 63 | 1003.6 |
| 20260903043054 | 66 | 61 | 0.0 | 0.0 | 0.00 | 0.00 | 0.00 | 61 | 1004.5 |
| 20260903041609 | 67 | 61 | 0.0 | 0.0 | 0.00 | 0.00 | 0.00 | 57 | 1004.3 |
| 20260903040053 | 67 | 61 | 0.0 | 0.0 | 0.00 | 0.00 | 0.00 | 56 | 1004.4 |
| 20260903034552 | 68 | 61 | 0.0 | 0.0 | 0.00 | 0.00 | 0.00 | 55 | 1004.2 |
| 20260903033052 | 70 | 62 | 0.0 | 0.0 | 0.00 | 0.00 | 0.00 | 51 | 1004.2 |
| 20260903031551 | 71 | 62 | 0.0 | 0.0 | 0.00 | 0.00 | 0.00 | 48 | 1004.0 |
| 20260903030051 | 72 | 62 | 0.0 | 0.0 | 0.00 | 0.00 | 0.00 | 47 | 1003.8 |
| 20260903024551 | 74 | 315 | 0.0 | 0.0 | 0.00 | 0.00 | 0.00 | 45 | 1003.8 |
| 20260903023050 | 75 | 340 | 0.0 | 0.0 | 0.00 | 0.00 | 0.00 | 42 | 1003.9 |
| 20260903021551 | 75 | 5 | 0.0 | 0.0 | 0.00 | 0.00 | 0.00 | 39 | 1002.8 |
| 20260903020053 | 76 | 5 | 0.0 | 0.0 | 0.00 | 0.00 | 0.00 | 38 | 1002.6 |
| 20260903014610 | 76 | 316 | 0.0 | 0.0 | 0.00 | 0.00 | 0.00 | 36 | 1002.5 |
| 20260903013100 | 77 | 24 | 0.0 | 0.0 | 0.00 | 0.00 | 0.00 | 34 | 1002.3 |
| 20260903011613 | 78 | 348 | 0.0 | 0.0 | 0.00 | 0.00 | 0.00 | 34 | 1002.3 |
| 20260903010104 | 79 | 317 | 0.0 | 0.0 | 0.00 | 0.00 | 0.00 | 32 | 1002.1 |
| 20260903004547 | 80 | 11 | 0.0 | 0.0 | 0.00 | 0.00 | 0.00 | 31 | 1002.1 |
| 20260903003103 | 82 | 346 | 0.0 | 0.0 | 0.00 | 0.00 | 0.00 | 30 | 1002.0 |
| 20260903001556 | 83 | 283 | 0.0 | 6.0 | 0.00 | 0.00 | 0.00 | 29 | 1002.0 |
| 20260903000048 | 84 | 337 | 1.0 | 9.0 | 0.00 | 0.00 | 0.00 | 27 | 1002.0 |
| 20260902234546 | 85 | 5 | 0.0 | 9.0 | 0.00 | 0.00 | 0.00 | 26 | 1001.9 |
| 20260902233045 | 84 | 248 | 0.0 | 14.0 | 0.00 | 0.00 | 0.00 | 26 | 1002.1 |
| 20260902231548 | 84 | 351 | 2.0 | 11.0 | 0.00 | 0.00 | 0.00 | 28 | 1002.2 |
| 20260902230053 | 84 | 303 | 4.0 | 13.0 | 0.00 | 0.00 | 0.00 | 26 | 1002.2 |
| 20260902223045 | 88 | 194 | 0.0 | 0.0 | 0.00 | 0.00 | 0.00 | 23 | 1002.2 |
| 20260902221542 | 89 | 105 | 0.0 | 2.0 | 0.00 | 0.00 | 0.00 | 22 | 1001.8 |
| 20260902220043 | 90 | 128 | 0.0 | 4.0 | 0.00 | 0.00 | 0.00 | 22 | 1001.8 |
| 20260902214543 | 90 | 114 | 0.0 | 3.0 | 0.00 | 0.01 | 0.00 | 22 | 1002.2 |
| 20260902213037 | 90 | 84 | 0.0 | 3.0 | 0.00 | 0.01 | 0.00 | 21 | 1002.4 |
| 20260902211535 | 90 | 175 | 1.0 | 8.0 | 0.00 | 0.01 | 0.00 | 21 | 1002.7 |
| 20260902210033 | 90 | 120 | 0.0 | 8.0 | 0.00 | 0.01 | 0.00 | 21 | 1002.9 |
| 20260902204529 | 89 | 98 | 0.0 | 7.0 | 0.00 | 0.01 | 0.00 | 21 | 1003.2 |
| 20260902203028 | 88 | 5 | 0.0 | 7.0 | 0.00 | 0.01 | 0.00 | 22 | 1003.5 |
| 20260902201525 | 88 | 90 | 0.0 | 10.0 | 0.00 | 0.01 | 0.00 | 23 | 1003.7 |
| 20260902200025 | 87 | 81 | 0.0 | 5.0 | 0.00 | 0.01 | 0.00 | 24 | 1004.1 |
| 20260902194534 | 86 | 69 | 1.0 | 8.0 | 0.00 | 0.01 | 0.00 | 23 | 1004.4 |
| 20260902193016 | 86 | 100 | 0.0 | 7.0 | 0.00 | 0.01 | 0.00 | 24 | 1004.5 |
| 20260902191514 | 86 | 91 | 0.0 | 10.0 | 0.00 | 0.01 | 0.00 | 25 | 1004.8 |
| 20260902190011 | 85 | 92 | 0.0 | 8.0 | 0.00 | 0.01 | 0.00 | 26 | 1005.0 |
| 20260902184509 | 86 | 99 | 0.0 | 9.0 | 0.00 | 0.01 | 0.00 | 26 | 1005.2 |
| 20260902183006 | 85 | 88 | 0.0 | 4.0 | 0.00 | 0.01 | 0.00 | 26 | 1005.3 |
| 20260902181503 | 85 | 69 | 1.0 | 8.0 | 0.00 | 0.01 | 0.00 | 26 | 1005.8 |
| 20260902180001 | 84 | 65 | 0.0 | 7.0 | 0.00 | 0.01 | 0.00 | 28 | 1005.9 |
| 20260902174604 | 84 | 59 | 0.0 | 7.0 | 0.00 | 0.01 | 0.00 | 26 | 1006.3 |
| 20260902173058 | 83 | 87 | 0.0 | 5.0 | 0.00 | 0.01 | 0.00 | 31 | 1006.4 |
| 20260902171557 | 82 | 105 | 0.0 | 5.0 | 0.00 | 0.01 | 0.00 | 30 | 1006.5 |
| 20260902170051 | 81 | 99 | 0.0 | 8.0 | 0.00 | 0.01 | 0.00 | 33 | 1006.6 |
| 20260902164552 | 80 | 107 | 0.0 | 7.0 | 0.00 | 0.01 | 0.00 | 34 | 1006.9 |
| 20260902163045 | 79 | 123 | 0.0 | 5.0 | 0.00 | 0.01 | 0.00 | 37 | 1006.9 |
| 20260902161542 | 77 | 128 | 0.0 | 4.0 | 0.00 | 0.01 | 0.00 | 39 | 1007.0 |
| 20260902160037 | 76 | 125 | 0.0 | 5.0 | 0.00 | 0.01 | 0.00 | 40 | 1007.3 |
| 20260902154534 | 75 | 168 | 0.0 | 2.0 | 0.00 | 0.01 | 0.00 | 44 | 1007.2 |
| 20260902153129 | 73 | 105 | 0.0 | 3.0 | 0.00 | 0.01 | 0.00 | 47 | 1007.3 |
| 20260902151529 | 71 | 109 | 0.0 | 2.0 | 0.00 | 0.01 | 0.00 | 50 | 1007.2 |
| 20260902150022 | 68 | 153 | 0.0 | 0.0 | 0.00 | 0.01 | 0.00 | 52 | 1007.4 |
| 20260902144519 | 67 | 154 | 0.0 | 0.0 | 0.00 | 0.01 | 0.00 | 53 | 1007.3 |